Bangor, ME

1:57 AM EST on December 07, 2019 (GMT -0500)
Bangor International

Weather History for KBGR - October, 2019

Change the Weather History Date:

Thursday, October 17, 2019

  Actual Average Record
Temperature  
Mean Temperature 50 °F 47 °F  
Max Temperature 56 °F 57 °F 85 °F (1968)
Min Temperature 43 °F 36 °F 14 °F (1940)
Degree Days  
Heating Degree Days 15 18  
Month to date heating degree days 244 262  
Since 1 July heating degree days 458 534  
Cooling Degree Days 0 0  
Month to date cooling degree days 0 0  
Year to date cooling degree days 336 317  
Moisture  
Dew Point 48 °F    
Average Humidity 86    
Maximum Humidity 100    
Minimum Humidity 71    
Precipitation  
Precipitation 1.08 in 0.13 in 2.25 in (1943)
Month to date precipitation 2.73 2.31  
Year to date precipitation 41.75 32.39  
Snow  
Snow 0.00 in 0.00 in 4.00 in (1970)
Month to date snowfall 0.0 0.0  
Since 1 July snowfall 0.0 0.0  
Since 1 September snowfall 0.0 0.0  
Snow Depth 0.00 in    
Sea Level Pressure  
Sea Level Pressure 29.16 in    
Wind  
Wind Speed 14 mph (East)    
Max Wind Speed 31 mph    
Max Gust Speed 43 mph    
Visibility 6 miles    
Events Rain    
T = Trace of Precipitation, MM = Missing Value Source: NWS Daily Summary

Daily Weather History Graph

Daily Weather History Graph

Search for Another Location

Airport or City:

Astronomy

Oct. 17, 2019 Rise Set
Actual Time 6:53 AM EDT 5:47 PM EDT
Civil Twilight 6:23 AM EDT 6:17 PM EDT
Nautical Twilight 5:49 AM EDT 6:51 PM EDT
Astronomical Twilight 5:15 AM EDT 7:24 PM EDT
Moon 8:08 PM EDT (10/17) 10:28 AM EDT (10/17)
Length of Visible Light 11h 53m
Length of Day
10h 54m
Waning Gibbous, 87% of the Moon is Illuminated
Oct 17
Waning Gibbous
Oct 21
Last Quarter
Oct 27
New
Nov 4
First Quarter
Nov 12
Full

Hourly Weather History & Observations

Time (EDT) Temp. Windchill Dew Point Humidity Pressure Visibility Wind Dir Wind Speed Gust Speed Precip Events Conditions
12:53 AM 48.9 °F - 44.1 °F 83% 29.70 in 10.0 mi ENE 9.2 mph - N/A   Overcast
1:53 AM 50.0 °F - 44.1 °F 80% 29.64 in 10.0 mi East 10.4 mph - N/A   Overcast
2:10 AM 50.0 °F - 44.1 °F 80% 29.63 in 10.0 mi East 9.2 mph - N/A   Mostly Cloudy
2:53 AM 50.0 °F - 45.0 °F 83% 29.55 in 10.0 mi ENE 12.7 mph - N/A   Overcast
3:53 AM 51.1 °F - 46.0 °F 83% 29.44 in 9.0 mi ENE 23.0 mph 29.9 mph 0.00 in Rain Light Rain
4:32 AM 50.0 °F - 48.0 °F 93% 29.41 in 4.0 mi ENE 20.7 mph 31.1 mph 0.08 in Rain Rain
4:53 AM 50.0 °F - 48.0 °F 93% 29.36 in 4.0 mi ENE 19.6 mph 28.8 mph 0.14 in Rain Rain
5:29 AM 51.1 °F - 48.0 °F 89% 29.27 in 5.0 mi ENE 20.7 mph 33.4 mph 0.06 in Rain Rain
5:53 AM 50.0 °F - 48.0 °F 93% 29.21 in 7.0 mi ENE 19.6 mph 34.5 mph 0.10 in Rain Rain
6:35 AM 51.1 °F - 48.9 °F 92% 29.17 in 2.5 mi ENE 21.9 mph 35.7 mph 0.14 in Rain Heavy Rain
6:53 AM 51.1 °F - 48.9 °F 92% 29.13 in 2.5 mi ENE 24.2 mph 36.8 mph 0.25 in Rain Heavy Rain
7:30 AM 52.0 °F - 48.9 °F 89% 29.13 in 2.5 mi East 23.0 mph 33.4 mph 0.08 in Rain Rain
7:36 AM 52.0 °F - 48.9 °F 89% 29.12 in 1.5 mi East 17.3 mph 29.9 mph 0.09 in Rain Rain
7:53 AM 52.0 °F - 50.0 °F 93% 29.12 in 1.5 mi East 16.1 mph 29.9 mph 0.14 in Rain Heavy Rain
8:53 AM 53.1 °F - 52.0 °F 96% 29.05 in 1.2 mi ENE 13.8 mph - 0.21 in Rain Heavy Rain
9:47 AM 53.6 °F - 51.8 °F 94% 28.99 in 2.0 mi ENE 16.1 mph - 0.20 in Rain Light Rain
9:53 AM 54.0 °F - 52.0 °F 93% 28.98 in 2.0 mi ENE 16.1 mph - 0.20 in Rain Light Rain
10:00 AM 54.0 °F - 52.0 °F 93% 28.98 in 2.0 mi ENE 17.3 mph - 0.01 in Rain Light Rain
10:39 AM 55.0 °F - 54.0 °F 96% 28.97 in 2.0 mi ESE 11.5 mph - 0.02 in Rain Light Rain
10:53 AM 55.9 °F - 55.0 °F 97% 28.97 in 2.0 mi SSE 16.1 mph 25.3 mph 0.02 in Rain Light Rain
11:47 AM 53.6 °F - 51.8 °F 94% 29.00 in 2.0 mi SSE 13.8 mph 23.0 mph 0.01 in Rain Light Rain
11:53 AM 54.0 °F - 51.1 °F 90% 29.00 in 2.0 mi SSE 19.6 mph 29.9 mph 0.01 in Rain Light Rain
12:35 PM 54.0 °F - 50.0 °F 86% 29.02 in 3.0 mi SSE 17.3 mph 26.5 mph 0.00 in Rain Light Rain
12:53 PM 53.1 °F - 50.0 °F 89% 29.03 in 3.0 mi SSE 15.0 mph 20.7 mph 0.00 in Rain Light Rain
1:53 PM 53.1 °F - 48.9 °F 86% 29.03 in 6.0 mi SSE 11.5 mph - 0.00 in   Overcast
2:53 PM 53.1 °F - 46.9 °F 80% 29.04 in 10.0 mi SSE 11.5 mph - N/A   Overcast
3:53 PM 53.1 °F - 45.0 °F 74% 29.03 in 10.0 mi SSE 13.8 mph 19.6 mph N/A   Mostly Cloudy
4:53 PM 52.0 °F - 46.0 °F 80% 29.05 in 10.0 mi SSE 9.2 mph - N/A   Mostly Cloudy
5:53 PM 52.0 °F - 46.0 °F 80% 29.05 in 8.0 mi ESE 5.8 mph - 0.01 in Rain Light Rain
6:53 PM 48.9 °F - 46.9 °F 93% 29.07 in 10.0 mi ENE 3.5 mph - 0.00 in   Overcast
7:53 PM 48.0 °F - 46.0 °F 93% 29.07 in 10.0 mi ENE 5.8 mph - N/A   Scattered Clouds
8:53 PM 46.0 °F 43.9 °F 45.0 °F 96% 29.10 in 10.0 mi NW 4.6 mph - N/A   Scattered Clouds
9:53 PM 46.0 °F 42.5 °F 45.0 °F 96% 29.13 in 10.0 mi NW 6.9 mph - N/A   Mostly Cloudy
10:53 PM 46.9 °F - 46.0 °F 97% 29.15 in 10.0 mi NW 6.9 mph - N/A   Mostly Cloudy
11:53 PM 46.9 °F - 46.0 °F 97% 29.17 in 10.0 mi West 4.6 mph - N/A   Mostly Cloudy